When you browse on this site, cookies collect data to enhance your experience and personalize the content and advertising you see.
Visit our Privacy Policy to learn more. By continuing to use the site, you agree to this use of cookies and data.
  • In Österreich
  • Länderverzeichnis
  • Für 7 Tage
  • Wassertemperatur
  • Satellitenkarten
  • Wetterkarte
  • News
  • Widgets
  • user-avatar
    Anmelden

    Stündliche Wetter Tarsus

    Heute, 17 Februar, Sonntag

    Zeit Temperatur Niederschläge Wind Luftdruck Luftfeuchtigkeit
    00:00 +8°C° 0 mm 2 m/S 763 mmHg 67%
    01:00 +8°C° 0 mm 2 m/S 763 mmHg 64%
    02:00 +8°C° 0 mm 2 m/S 764 mmHg 61%
    03:00 +7°C° 0 mm 2 m/S 764 mmHg 58%
    04:00 +7°C° 0 mm 2 m/S 764 mmHg 56%
    05:00 +7°C° 0 mm 2 m/S 764 mmHg 53%
    06:00 +8°C° 0 mm 2 m/S 764 mmHg 53%
    07:00 +9°C° 0 mm 2 m/S 764 mmHg 53%
    08:00 +9°C° 0 mm 2 m/S 764 mmHg 53%
    09:00 +12°C° 0 mm 2 m/S 764 mmHg 50%
    10:00 +13°C° 0 mm 2 m/S 764 mmHg 48%
    11:00 +15°C° 0 mm 2 m/S 764 mmHg 46%
    12:00 +15°C° 0 mm 2 m/S 764 mmHg 47%
    13:00 +16°C° 0 mm 2 m/S 763 mmHg 48%
    14:00 +16°C° 0 mm 2 m/S 763 mmHg 50%
    15:00 +15°C° 0 mm 2 m/S 763 mmHg 58%
    16:00 +14°C° 0 mm 2 m/S 763 mmHg 67%
    17:00 +13°C° 0 mm 2 m/S 763 mmHg 76%
    18:00 +12°C° 0 mm 2 m/S 763 mmHg 76%
    19:00 +10°C° 0 mm 2 m/S 763 mmHg 77%
    20:00 +10°C° 0 mm 2 m/S 764 mmHg 78%
    21:00 +9°C° 0 mm 2 m/S 764 mmHg 74%
    22:00 +9°C° 0 mm 2 m/S 763 mmHg 70%
    23:00 +9°C° 0 mm 2 m/S 763 mmHg 67%

    Morgen, 18 Februar, Montag

    Zeit Temperatur Niederschläge Wind Luftdruck Luftfeuchtigkeit
    00:00 +9°C° 0 mm 2 m/S 763 mmHg 65%
    01:00 +8°C° 0 mm 2 m/S 763 mmHg 63%
    02:00 +8°C° 0 mm 2 m/S 763 mmHg 61%
    03:00 +8°C° 0 mm 2 m/S 763 mmHg 60%
    04:00 +7°C° 0 mm 2 m/S 763 mmHg 59%
    05:00 +7°C° 0 mm 2 m/S 763 mmHg 58%
    06:00 +8°C° 0 mm 2 m/S 763 mmHg 57%
    07:00 +9°C° 0 mm 2 m/S 763 mmHg 56%
    08:00 +11°C° 0 mm 1 m/S 763 mmHg 55%
    09:00 +12°C° 0 mm 2 m/S 763 mmHg 56%
    10:00 +14°C° 0 mm 2 m/S 763 mmHg 56%
    11:00 +15°C° 0 mm 2 m/S 763 mmHg 57%
    12:00 +16°C° 0 mm 2 m/S 762 mmHg 58%
    13:00 +16°C° 0 mm 3 m/S 762 mmHg 59%
    14:00 +17°C° 0 mm 3 m/S 761 mmHg 60%
    15:00 +16°C° 0 mm 3 m/S 761 mmHg 65%
    16:00 +14°C° 0 mm 3 m/S 761 mmHg 71%
    17:00 +13°C° 0 mm 3 m/S 761 mmHg 77%
    18:00 +13°C° 0 mm 2 m/S 762 mmHg 75%
    19:00 +12°C° 0 mm 2 m/S 762 mmHg 73%
    20:00 +11°C° 0 mm 1 m/S 762 mmHg 70%
    21:00 +11°C° 0 mm 1 m/S 762 mmHg 68%
    22:00 +11°C° 0 mm 1 m/S 762 mmHg 65%
    23:00 +11°C° 0 mm 1 m/S 763 mmHg 62%

    übermorgen, 19 Februar, Dienstag

    Zeit Temperatur Niederschläge Wind Luftdruck Luftfeuchtigkeit
    00:00 +9°C° 0 mm 2 m/S 763 mmHg 63%
    01:00 +9°C° 0 mm 2 m/S 763 mmHg 63%
    02:00 +9°C° 0 mm 2 m/S 763 mmHg 63%
    03:00 +8°C° 0 mm 2 m/S 763 mmHg 64%
    04:00 +8°C° 0 mm 2 m/S 763 mmHg 64%
    05:00 +8°C° 0 mm 2 m/S 763 mmHg 65%
    06:00 +9°C° 0 mm 2 m/S 763 mmHg 64%
    07:00 +10°C° 0 mm 2 m/S 763 mmHg 63%
    08:00 +12°C° 0 mm 2 m/S 764 mmHg 62%
    09:00 +13°C° 0 mm 2 m/S 763 mmHg 59%
    10:00 +15°C° 0 mm 2 m/S 763 mmHg 57%
    11:00 +17°C° 0 mm 2 m/S 763 mmHg 55%
    12:00 +17°C° 0 mm 2 m/S 763 mmHg 55%
    13:00 +18°C° 0 mm 2 m/S 763 mmHg 54%
    14:00 +18°C° 0 mm 3 m/S 762 mmHg 54%
    15:00 +17°C° 0 mm 3 m/S 762 mmHg 61%
    16:00 +16°C° 0 mm 2 m/S 762 mmHg 67%
    17:00 +14°C° 0 mm 2 m/S 762 mmHg 74%
    18:00 +14°C° 0 mm 2 m/S 763 mmHg 72%
    19:00 +13°C° 0 mm 1 m/S 763 mmHg 70%
    20:00 +12°C° 0 mm 1 m/S 764 mmHg 68%
    21:00 +10°C° 0 mm 2 m/S 764 mmHg 65%
    22:00 +10°C° 0 mm 2 m/S 764 mmHg 62%
    23:00 +10°C° 0 mm 3 m/S 764 mmHg 59%

    20 Februar, Mittwoch

    Zeit Temperatur Niederschläge Wind Luftdruck Luftfeuchtigkeit
    00:00 +10°C° 0 mm 3 m/S 764 mmHg 58%
    01:00 +9°C° 0 mm 3 m/S 764 mmHg 57%
    02:00 +9°C° 0 mm 3 m/S 764 mmHg 55%
    03:00 +9°C° 0 mm 3 m/S 764 mmHg 56%
    04:00 +9°C° 0 mm 3 m/S 764 mmHg 56%
    05:00 +9°C° 0 mm 3 m/S 764 mmHg 57%
    06:00 +9°C° 0 mm 3 m/S 764 mmHg 56%
    07:00 +10°C° 0 mm 3 m/S 765 mmHg 56%
    08:00 +12°C° 0 mm 2 m/S 765 mmHg 56%
    09:00 +14°C° 0 mm 2 m/S 765 mmHg 57%
    10:00 +15°C° 0 mm 2 m/S 765 mmHg 58%
    11:00 +17°C° 0 mm 2 m/S 765 mmHg 58%
    12:00 +17°C° 0.1 mm 2 m/S 764 mmHg 58%
    13:00 +17°C° 0.1 mm 2 m/S 764 mmHg 58%
    14:00 +18°C° 0.1 mm 2 m/S 763 mmHg 58%
    15:00 +18°C° 0.1 mm 1 m/S 763 mmHg 65%
    16:00 +16°C° 0.1 mm 1 m/S 764 mmHg 72%
    17:00 +15°C° 0.1 mm 1 m/S 764 mmHg 79%
    18:00 +14°C° 0.2 mm 1 m/S 764 mmHg 80%
    19:00 +13°C° 0.2 mm 1 m/S 764 mmHg 81%
    20:00 +12°C° 0.2 mm 1 m/S 765 mmHg 82%
    21:00 +12°C° 0.1 mm 2 m/S 765 mmHg 80%
    22:00 +12°C° 0.1 mm 2 m/S 765 mmHg 78%
    23:00 +10°C° 0.1 mm 2 m/S 765 mmHg 75%

    21 Februar, Donnerstag

    Zeit Temperatur Niederschläge Wind Luftdruck Luftfeuchtigkeit
    00:00 +10°C° 0 mm 2 m/S 765 mmHg 74%
    01:00 +9°C° 0 mm 2 m/S 765 mmHg 73%
    02:00 +9°C° 0 mm 2 m/S 764 mmHg 72%
    03:00 +9°C° 0 mm 2 m/S 764 mmHg 71%
    04:00 +9°C° 0 mm 2 m/S 764 mmHg 70%
    05:00 +8°C° 0 mm 2 m/S 764 mmHg 69%
    06:00 +9°C° 0 mm 2 m/S 764 mmHg 67%
    07:00 +10°C° 0 mm 2 m/S 765 mmHg 64%
    08:00 +12°C° 0 mm 2 m/S 765 mmHg 61%
    09:00 +13°C° 0 mm 2 m/S 765 mmHg 61%
    10:00 +15°C° 0 mm 2 m/S 764 mmHg 62%
    11:00 +16°C° 0 mm 2 m/S 764 mmHg 62%
    12:00 +17°C° 0 mm 2 m/S 764 mmHg 61%
    13:00 +17°C° 0 mm 2 m/S 763 mmHg 61%
    14:00 +17°C° 0 mm 2 m/S 763 mmHg 61%
    15:00 +17°C° 0 mm 2 m/S 763 mmHg 67%
    16:00 +16°C° 0 mm 2 m/S 763 mmHg 73%
    17:00 +15°C° 0 mm 2 m/S 763 mmHg 80%
    18:00 +14°C° 0.1 mm 1 m/S 763 mmHg 81%
    19:00 +12°C° 0.1 mm 1 m/S 763 mmHg 81%
    20:00 +11°C° 0.1 mm 1 m/S 764 mmHg 82%
    21:00 +11°C° 0.1 mm 1 m/S 764 mmHg 79%
    22:00 +11°C° 0.1 mm 1 m/S 764 mmHg 76%
    23:00 +11°C° 0.1 mm 1 m/S 764 mmHg 73%

    22 Februar, Freitag

    Zeit Temperatur Niederschläge Wind Luftdruck Luftfeuchtigkeit
    00:00 +9°C° 0 mm 2 m/S 764 mmHg 71%
    01:00 +9°C° 0 mm 2 m/S 764 mmHg 70%
    02:00 +9°C° 0 mm 2 m/S 764 mmHg 68%
    03:00 +8°C° 0 mm 2 m/S 764 mmHg 67%
    04:00 +8°C° 0 mm 2 m/S 764 mmHg 65%
    05:00 +8°C° 0 mm 2 m/S 764 mmHg 63%
    06:00 +9°C° 0 mm 2 m/S 764 mmHg 61%
    07:00 +11°C° 0 mm 1 m/S 764 mmHg 59%
    08:00 +12°C° 0 mm 1 m/S 764 mmHg 56%
    09:00 +14°C° 0 mm 1 m/S 764 mmHg 56%
    10:00 +15°C° 0 mm 1 m/S 763 mmHg 56%
    11:00 +16°C° 0 mm 1 m/S 763 mmHg 56%
    12:00 +17°C° 0 mm 2 m/S 762 mmHg 56%
    13:00 +17°C° 0 mm 2 m/S 762 mmHg 55%
    14:00 +17°C° 0 mm 2 m/S 761 mmHg 55%
    15:00 +16°C° 0 mm 2 m/S 761 mmHg 61%
    16:00 +15°C° 0 mm 2 m/S 761 mmHg 68%
    17:00 +14°C° 0 mm 2 m/S 761 mmHg 75%
    18:00 +13°C° 0 mm 1 m/S 761 mmHg 78%
    19:00 +12°C° 0 mm 1 m/S 761 mmHg 82%
    20:00 +11°C° 0 mm 1 m/S 762 mmHg 86%
    21:00 +11°C° 0 mm 1 m/S 762 mmHg 86%
    22:00 +9°C° 0 mm 2 m/S 762 mmHg 86%
    23:00 +9°C° 0 mm 2 m/S 762 mmHg 87%
    Mehr zeigen